STARLINK-3955, 52561

Orbit data source: Space-Track

STARLINK-3955, 52561 is a payload satellite owned by SpaceX/Seattle (US) in LEO that was launched on Fri, 13 May 2022 UTC via an FALCON 9 launch vehicle from the Air Force Western Test Range (AFWTR). Payload-class satellites include a variety of spacecraft equipped with specific instruments for various scientific and technological missions. These include communications satellites like Starlink; space stations such as the ISS; scientific satellites like the Hubble; Earth observation satellites from companies like Planet Labs, Umbra, and HawkEye 360; GPS; miniature CubeSats for education and research; and military/defense satellites.

Loading next visibility...
Identifier
52561, 2022-051AE
Orbit
LEO
Country
Flag of USUS
Related business
Manufacturer
SpaceX/Seattle
Mission
Operational Commercial Communications
Bus & Motor
STARLINK, Unknown motor
Mass
297 kg wet, ~275 kg dry
Launch date (UTC)
2022-05-13 (4 years ago)
Launch vehicle
FALCON 9
Launch site
Air Force Western Test Range (AFWTR)
Object type
Payload
Rocket body
Debris
Shape & HBR
Box + 1 Pan, 10.1 m
Radar Cross Section
13.562 m², Large (>1 m²)

Expand to show TLE details & history
Last TLE update: 2 days ago

TLE from 2 days ago
0 STARLINK-3955
1 52561U 22051AE  26171.03765454 -.00000149  00000-0  87343-5 0  9995
2 52561  53.1595  34.5514 0001203  82.2482 277.8646 15.08832309226822
Epoch: 2026-06-20T00:54Z
TLE epoch observation values (Epoch: 2026-06-20T00:54:13.352Z)
Latitude
-0.00001°
Longitude
112.73774°
Altitude
540.544 km
Speed
7.593 km/s
True Right ascension
02h 18m 12s
True Declination
0° 00' 00"
Sunlit
Object was in daylight at epoch
Visualization orbit readout
Latitude
Unknown
Longitude
Unknown
Altitude
Unknown
Speed
Unknown
Apparent Right ascension
Unknown
Apparent Declination
Unknown
Sunlit
N/A
Visualization observer readout
Local Sidereal Time
21:33:37
Azimuth
Unknown
Elevation
Unknown
Doppler factor
Unknown
Orbital elements
Apogee altitude
540.853 km
Perigee altitude
539.189 km
Semi-major axis
6,918.158 km
Eccentricity
0.00012
Inclination
53.1595°
RAAN
34.5514°
Arg. of periapsis
82.2482°
True anomaly
277.85094°
Mean anomaly
277.8646°
Eccentric anomaly
277.85777°
Mean motion
3.77188 °/min
Orbital period
95.44 mins
BSTAR
0.0000087343
Loading maneuver chart data...
Computing Atmospheric mass density...
Loading historical data...
Loading historical data...
Loading historical data...
Loading historical data...
Loading historical data...
Loading historical data...
Loading historical data...

Documentation

Showing up to 5 results
|